This demonstration page uses our WeatherBlox Daily Observations layout. Learn more.

Left ArrowRight Arrow

30.21309, -93.2044

Hourly Observations for July 20, 2022

Temp ( °F °C ) Dew Point ( °F °C ) Humidity (%) Winds ( mph kmh ) Pressure ( in mb ) Visibility ( mi km ) Precip ( " mm )
12:15 am 00:15 Clear 83 28.1 75 23.9 78 78 SSW 8 13 29.96 1015 10 16 0.00 0.00
12:35 am 00:35 Clear 82 28 76 24.2 80 80 SSW 7 11 29.96 1015 10 16 0.00 0.00
12:55 am 00:55 Clear 83 28.1 76 24.3 80 80 SSW 9 15 29.95 1014 10 16 0.00 0.00
1:15 am 01:15 Clear 83 28.3 76 24.3 79 79 SSW 8 13 29.95 1014 10 16 0.00 0.00
1:35 am 01:35 Clear 83 28.3 76 24.4 79 79 SSW 8 13 29.95 1014 10 16 0.00 0.00
1:55 am 01:55 Clear 83 28.5 76 24.5 79 79 SW 9 15 29.95 1014 10 16 0.00 0.00
2:15 am 02:15 Partly Cloudy 83 28.4 76 24.6 80 80 SSW 8 13 29.95 1014 10 16 0.00 0.00
2:35 am 02:35 Clear 83 28.6 76 24.5 79 79 SSW 10 17 29.95 1014 10 16 0.00 0.00
2:55 am 02:55 Clear 83 28.5 76 24.5 79 79 SW 13 20 29.94 1014 10 16 0.00 0.00
3:15 am 03:15 Clear 83 28.5 76 24.3 78 78 SW 8 13 29.94 1014 10 16 0.00 0.00
3:35 am 03:35 Clear 83 28.3 76 24.2 78 78 SW 9 15 29.94 1014 10 16 0.00 0.00
3:55 am 03:55 Clear 83 28.1 76 24.3 80 80 SSW 9 15 29.94 1014 10 16 0.00 0.00
4:15 am 04:15 Clear 82 28 76 24.3 80 80 SW 8 13 29.94 1014 10 16 0.00 0.00
4:35 am 04:35 Clear 82 28 76 24.2 80 80 SW 8 13 29.94 1014 10 16 0.00 0.00
4:55 am 04:55 Clear 82 27.9 75 24.1 80 80 SSW 9 15 29.94 1014 10 16 0.00 0.00
5:15 am 05:15 Clear 82 27.8 75 24 80 80 SW 9 15 29.95 1014 10 16 0.00 0.00
5:35 am 05:35 Clear 82 27.7 75 24 80 80 SSW 8 13 29.95 1014 10 16 0.00 0.00
6:00 am 06:00 Mostly Clear 81 27 75 24 84 84 SSW 6 9 29.96 1015 10 16 0.00 0.00
6:55 am 06:55 Mostly Sunny 82 28 75 24 79 79 SSW 6 9 29.97 1015 10 16 0.00 0.00
7:55 am 07:55 Mostly Sunny 84 29 75 24 74 74 SW 7 11 29.98 1015 10 16 0.00 0.00
8:55 am 08:55 Mostly Cloudy 88 31 75 24 66 66 SW 12 19 30.00 1016 10 16 0.00 0.00
9:55 am 09:55 Mostly Cloudy 88 31 75 24 66 66 SW 15 24 29.99 1016 10 16 0.00 0.00
10:47 am 10:47 Mostly Cloudy 90 32 75 24 63 63 SSW 12 19 29.99 1016 10 16 0.00 0.00
11:53 am 11:53 Mostly Cloudy 91 33 75 24 59 59 SW 13 20 29.99 1016 10 16 0.00 0.00
12:45 pm 12:45 Mostly Cloudy 91 33 75 24 59 59 SW 13 20 29.98 1015 10 16 0.00 0.00
1:55 pm 13:55 Mostly Cloudy 93 34 77 25 59 59 SSW 13 20 29.96 1015 10 16 0.00 0.00
2:50 pm 14:50 Mostly Cloudy 93 34 77 25 59 59 SSW 15 24 29.94 1014 10 16 0.00 0.00
3:52 pm 15:52 Partly Cloudy 93 34 77 25 59 59 SSW 17 28 29.92 1013 10 16 0.00 0.00
4:52 pm 16:52 Partly Cloudy 93 34 75 24 56 56 SSW 18 30 29.91 1013 10 16 0.00 0.00
5:46 pm 17:46 Partly Cloudy 91 33 75 24 59 59 S 16 26 29.91 1013 10 16 0.00 0.00
6:45 pm 18:45 Partly Cloudy 90 32 77 25 67 67 SSW 17 28 29.91 1013 10 16 0.00 0.00
7:45 pm 19:45 Partly Cloudy 88 31 77 25 70 70 SSW 13 20 29.92 1013 10 16 0.00 0.00
8:55 pm 20:55 Mostly Clear 84 29 75 24 74 74 SW 12 19 29.93 1014 10 16 0.00 0.00
9:46 pm 21:46 Mostly Clear 84 29 75 24 74 74 SW 12 19 29.94 1014 10 16 0.00 0.00
10:15 pm 22:15 Clear 84 28.8 76 24.3 77 77 SW 10 17 29.94 1014 10 16 0.00 0.00
10:35 pm 22:35 Clear 84 28.9 76 24.3 76 76 SW 9 15 29.95 1014 10 16 0.00 0.00
10:55 pm 22:55 Clear 84 28.9 76 24.2 76 76 SW 10 17 29.94 1014 10 16 0.00 0.00
11:15 pm 23:15 Clear 84 28.8 76 24.3 77 77 SW 10 17 29.94 1014 10 16 0.00 0.00
11:35 pm 23:35 Clear 84 28.7 75 24.1 76 76 SW 12 19 29.94 1014 10 16 0.00 0.00
11:55 pm 23:55 Partly Cloudy 83 28.5 76 24.2 78 78 SSW 9 15 29.94 1014 10 16 0.00 0.00

Powered by AerisWeather